EHI
6 7 6 3 0 0 0 0 0 0 0 0 0 1 3 3 3 2 1 0 0 0 0 0 0 0 0 0 0 0 0 0 0 1 1 1 0 0 0 0 0 0 0
7 7 7 4 1 0 0 0 0 0 0 0 0 1 2 3 2 1 0 0 0 0 0 0 0 0 0 0 0 0 0 0 0 0 0 0 0 0 0 0 0 0 1
6 5 5 3 1 0 0 0 0 0 0 0 1 1 1 2 1 0 0 0 0 0 0 0 0 0 0 0 0 0 0 0 0 0 0 0 0 0 0 0 0 1 2
2 2 3 3 1 0 0 0 0 0 0 1 1 1 1 1 0 0 0 0 0 0 0 0 0 0 0 0 0 0 0 0 0 0 0 0 0 0 0 0 0 1 2
2 2 3 5 3 2 1 1 0 0 0 1 2 3 2 1 0 0 0 0 0 0 0 0 0 0 0 0 0 0 0 0 0 0 0 0 0 0 0 0 0 0 1
5 4 5 7 6 4 2 1 0 0 0 1 2 3 2 1 0 0 0 0 0 0 0 0 0 0 0 0 0 0 1 2 1 0 0 0 0 0 0 0 0 0 0
12 8 6 7 7 5 3 1 0 0 0 0 1 3 2 1 0 0 0 0 0 0 0 0 0 0 0 0 0 1 3 5 3 0 0 0 0 0 0 0 0 0 0
19 13 8 7 7 6 4 2 1 1 0 0 1 2 2 1 0 0 0 0 0 0 0 0 0 0 0 0 0 1 4 6 3 0 0 0 0 0 0 0 0 0 0
24 16 8 6 6 4 4 3 3 3 2 0 0 1 1 1 0 0 0 0 0 0 0 0 0 0 0 0 0 0 3 5 2 0 0 0 0 0 0 0 0 0 0
24 16 8 6 5 3 3 3 4 4 3 1 0 0 0 0 0 0 0 0 0 0 0 0 0 0 0 0 0 0 1 2 1 0 0 0 0 0 0 0 0 0 0
26 18 11 8 5 3 2 3 3 2 2 1 0 0 0 0 0 0 1 1 0 0 0 0 0 0 0 0 0 1 1 1 0 0 1 1 2 1 0 0 0 0 0
32 24 16 12 7 4 3 2 1 1 2 1 0 0 0 0 0 1 2 2 1 0 0 0 0 0 0 0 1 2 1 0 1 1 2 4 3 1 0 0 0 0 0
42 33 25 19 13 10 6 3 1 1 2 1 0 0 0 0 0 1 2 2 1 0 0 0 0 0 0 0 1 1 1 0 2 3 3 5 5 1 0 0 0 0 0
51 46 41 33 26 23 15 7 4 4 4 3 3 2 1 0 0 1 3 3 1 0 0 0 0 0 0 0 0 0 0 0 2 3 3 4 4 2 0 0 0 0 0
60 60 59 53 46 40 29 15 10 10 9 10 8 5 4 4 5 5 4 3 1 0 1 1 1 0 0 1 1 1 1 0 2 3 2 2 3 3 1 0 0 0 0
69 70 73 71 65 56 39 22 16 16 17 17 16 13 11 14 15 12 5 2 1 2 4 3 1 0 0 1 2 2 2 1 1 2 1 0 2 2 1 0 0 0 0
79 80 79 76 74 66 45 26 19 21 22 25 28 26 21 23 25 17 7 3 4 8 9 5 2 1 1 1 1 2 3 2 2 2 1 0 0 1 0 0 0 0 0
87 89 84 75 74 69 51 33 26 27 31 38 41 36 29 29 30 21 12 11 13 13 9 5 2 2 3 2 1 1 2 3 2 1 1 0 1 1 1 1 1 1 0
92 93 87 79 77 71 57 43 39 42 46 46 45 42 38 35 32 24 21 24 20 12 7 5 6 6 5 3 1 0 1 2 1 0 1 2 3 5 5 3 3 3 2
93 92 87 83 80 75 66 57 54 58 56 48 45 47 47 42 34 28 30 31 23 13 8 9 12 11 6 3 2 2 2 2 2 1 1 3 6 8 8 7 6 4 4
92 89 84 80 79 78 74 69 65 64 58 49 47 53 54 49 40 33 32 34 27 20 18 17 17 13 7 4 5 5 3 1 3 3 2 3 6 8 10 12 12 10 8
91 88 83 79 77 77 76 72 67 62 55 48 49 57 58 52 45 37 36 37 33 30 29 26 21 14 8 5 6 6 2 1 2 2 2 3 4 6 9 12 16 17 16
90 86 82 78 75 75 74 71 67 65 56 49 52 58 58 52 46 42 41 40 36 35 35 30 22 15 9 6 6 6 3 1 1 1 3 4 5 7 7 8 13 18 20
85 82 79 76 74 74 73 71 72 70 61 55 56 58 56 51 46 44 43 41 37 35 36 32 23 17 11 8 6 6 4 2 1 1 2 3 6 7 4 3 7 13 17
78 78 79 78 75 74 74 74 75 72 66 61 60 59 55 51 47 44 42 42 39 36 35 35 28 19 13 9 7 6 4 3 1 1 1 2 4 4 3 2 4 9 12
75 79 82 81 77 74 74 75 75 72 67 64 63 59 54 50 47 43 41 42 42 38 35 37 33 22 12 10 9 7 5 3 1 0 0 1 2 2 2 3 5 8 11
Wind_Speed
16 15 15 15 15 15 16 16 16 16 16 16 16 16 17 17 17 17 17 17 17 17 17 17 17 17 17 17 17 17 17 17 17 18 18 17 16 14 14 15 15 13 16
19 17 16 16 16 16 16 16 15 15 16 15 15 16 16 16 16 16 16 17 17 17 17 17 17 17 17 16 16 16 15 16 16 17 17 16 15 14 13 14 15 11 16
20 17 16 15 15 15 15 15 15 15 15 15 15 15 15 15 16 16 16 16 17 17 17 16 16 17 16 15 14 13 13 14 14 15 14 11 13 15 15 16 16 15 15
19 16 16 16 15 15 15 15 15 15 15 14 14 14 15 15 15 16 16 16 16 16 16 16 16 16 15 13 12 11 10 11 10 10 8 10 10 14 15 16 15 15 15
19 17 17 17 16 16 15 15 15 14 15 14 14 14 14 15 15 15 16 16 16 16 16 15 15 14 13 12 10 8 7 6 6 8 10 10 9 13 15 15 15 15 15
20 18 17 17 16 15 15 15 14 14 14 14 14 14 14 14 14 15 15 16 15 15 15 15 14 13 12 10 8 6 4 3 5 9 9 10 8 12 14 14 14 15 15
20 18 17 17 16 15 15 14 14 14 14 14 14 14 14 14 14 14 15 15 15 14 14 14 13 12 11 8 6 4 2 2 5 9 9 9 9 12 14 14 14 14 14
19 18 16 17 16 15 14 14 13 13 13 13 13 14 14 13 14 14 14 14 14 13 13 13 12 11 9 7 4 3 3 3 9 12 10 9 11 13 13 13 13 13 14
19 18 15 14 14 14 14 13 13 13 13 12 13 13 13 13 13 14 13 14 13 13 13 12 11 10 8 5 2 2 3 4 6 8 11 8 11 13 13 13 13 13 13
17 16 15 14 13 12 12 13 13 13 13 12 13 13 14 13 13 14 13 12 13 12 12 12 11 9 7 4 1 1 3 3 6 10 8 9 12 13 13 12 13 13 12
15 14 15 14 13 12 12 13 12 12 12 12 11 13 12 9 10 9 13 12 12 11 11 10 10 9 7 4 3 2 2 1 8 8 7 11 12 12 12 12 12 12 11
14 14 13 13 12 12 11 10 8 8 9 7 7 8 5 4 6 10 12 12 11 11 10 9 9 8 7 4 4 4 2 3 8 7 7 13 12 12 11 11 11 11 11
13 12 13 11 9 10 8 8 6 5 6 6 7 6 4 4 6 7 6 7 7 8 6 7 7 5 4 2 3 3 1 3 5 7 8 12 11 11 11 10 10 10 10
12 12 13 10 7 7 8 6 6 6 5 5 6 6 5 2 4 5 4 5 5 3 3 4 3 3 2 2 2 2 3 3 6 6 7 12 10 10 10 10 9 9 9
10 10 11 9 7 5 5 4 5 6 6 6 5 4 5 4 4 4 3 3 4 4 3 2 2 3 2 2 2 4 3 5 8 8 6 11 10 9 9 9 9 9 8
13 11 11 10 8 6 5 2 3 4 4 6 5 5 5 4 4 4 3 2 3 3 3 2 3 3 1 2 2 2 2 4 7 9 7 8 10 9 9 9 9 9 8
13 12 11 10 9 7 6 4 3 4 5 5 4 5 4 5 6 4 3 2 2 3 4 2 2 2 3 3 2 2 2 3 5 7 8 6 6 8 9 9 8 8 8
12 12 12 11 11 8 6 4 3 3 5 4 5 5 5 5 6 4 4 3 3 3 3 3 2 2 2 2 2 2 2 2 3 5 6 6 6 6 8 10 9 8 8
12 12 11 9 11 10 7 5 3 2 3 4 4 5 5 5 6 4 3 3 4 3 3 4 3 2 2 2 3 3 3 3 3 3 4 5 6 6 6 9 10 9 9
12 12 11 9 10 9 7 5 3 3 3 3 4 5 6 5 6 4 3 4 4 3 2 2 4 2 2 2 3 4 2 3 3 3 3 4 5 7 7 8 7 7 10
13 13 12 10 10 8 7 7 6 5 4 4 4 6 7 6 6 4 3 5 3 3 4 4 3 3 2 2 1 2 2 3 3 3 3 3 4 5 6 7 6 5 6
14 13 12 11 11 10 7 6 5 5 5 4 3 5 7 6 6 7 4 5 4 3 4 3 3 2 3 3 2 2 2 1 2 5 4 4 4 4 5 8 6 6 5
15 15 13 12 11 11 9 7 5 4 3 4 5 5 6 6 7 6 6 5 5 5 4 4 4 4 3 2 3 2 2 3 2 2 4 4 4 4 4 4 7 7 7
14 14 12 12 11 11 10 9 9 7 7 6 5 5 6 7 7 7 6 5 5 4 5 6 6 4 3 3 2 2 2 2 2 1 1 2 4 5 4 5 6 7 6
15 14 13 12 11 11 10 10 9 8 6 5 5 6 6 6 7 7 6 5 5 4 5 5 5 5 4 4 3 2 2 2 3 2 2 2 3 4 5 5 4 5 6
13 13 13 13 11 11 11 10 9 8 7 6 7 6 6 5 6 7 7 6 6 5 5 5 5 6 4 4 3 2 2 2 2 2 3 3 3 4 5 4 4 4 5
Wind_Direction
113 114 111 108 107 104 103 104 102 101 97 94 93 93 93 94 94 95 97 99 100 99 98 97 95 93 92 91 93 95 97 98 99 100 99 98 97 98 101 105 101 96 98
117 115 113 110 109 108 107 106 107 105 103 101 99 97 96 97 98 99 99 100 100 100 99 98 97 96 96 96 97 99 102 104 106 106 104 97 94 92 94 96 96 101 102
116 119 116 111 111 110 110 109 108 109 107 104 102 100 99 99 99 101 101 101 101 101 101 100 100 99 100 99 101 105 108 112 118 121 115 103 96 93 95 97 100 100 100
122 123 116 115 113 113 111 110 109 110 109 106 104 102 101 101 101 102 103 103 105 104 103 102 102 103 104 104 105 108 114 121 130 129 108 102 98 98 99 101 102 102 101
120 116 118 119 116 115 114 112 111 112 113 111 108 106 105 104 104 104 103 103 104 105 105 105 105 105 106 106 106 108 114 124 130 103 90 90 92 103 104 104 105 104 103
121 119 121 121 119 118 117 116 116 115 115 115 114 111 109 109 108 107 106 104 104 105 105 105 106 106 107 109 109 106 106 112 111 101 99 100 101 105 106 106 105 105 104
122 122 126 125 123 122 121 119 118 117 117 117 117 115 113 111 111 110 109 108 107 107 108 108 108 108 108 108 106 95 76 34 100 97 94 95 101 105 105 106 105 106 106
123 124 126 128 127 125 124 123 122 122 122 122 121 118 117 115 113 112 112 112 111 111 111 109 110 111 111 108 92 50 21 31 106 102 99 99 108 106 107 108 107 108 108
123 127 133 134 132 129 128 126 125 125 126 127 126 124 123 120 118 116 115 115 114 113 113 113 114 114 114 111 91 19 2 24 98 110 108 107 112 112 113 112 111 110 111
129 135 138 140 140 140 134 131 128 129 131 133 134 133 131 129 126 125 121 119 118 117 117 118 118 121 125 133 151 340 348 348 108 100 102 115 118 117 117 117 116 114 113
135 139 142 142 151 148 142 137 137 136 137 140 142 143 146 145 138 140 121 126 124 124 125 125 128 134 143 164 210 264 286 170 97 92 99 119 124 122 122 121 120 119 119
140 144 143 147 157 152 143 143 150 151 150 160 146 157 169 140 131 124 128 133 135 135 137 141 146 156 174 172 196 227 242 136 108 106 114 127 127 127 127 126 127 126 125
147 148 144 152 156 147 139 158 159 147 152 160 151 157 152 137 133 129 138 140 147 157 161 154 172 192 193 178 175 190 184 99 101 109 124 129 130 131 132 133 134 134 134
155 151 146 149 146 143 147 156 151 144 155 151 152 166 149 149 136 138 147 154 162 168 165 169 179 175 169 158 141 118 107 99 104 110 130 134 135 136 138 140 142 142 142
160 153 143 145 143 139 130 156 158 147 152 143 152 163 148 149 138 133 142 154 161 147 156 170 135 125 125 120 106 98 105 103 117 116 129 142 142 144 146 148 150 151 151
166 157 145 150 142 136 135 162 140 140 136 144 154 160 164 145 130 132 142 162 149 140 145 144 135 130 130 90 89 101 100 105 118 130 139 147 152 155 157 158 161 163 164
167 157 150 154 147 147 152 176 159 148 149 149 144 147 163 146 138 149 153 169 142 129 127 127 130 135 156 144 127 114 98 97 118 131 143 151 159 167 170 169 171 174 177
165 157 160 166 156 159 163 181 175 165 152 144 141 150 167 147 152 162 158 162 142 137 143 140 163 153 142 138 154 154 123 120 122 140 150 158 163 167 177 181 180 183 187
163 158 165 164 159 164 167 171 188 162 143 143 148 155 164 160 161 175 158 147 157 157 167 174 155 148 148 160 170 156 150 149 155 169 161 162 163 160 167 181 187 189 196
161 160 166 166 161 163 166 166 186 171 157 164 161 156 159 166 171 180 161 157 175 164 160 131 126 128 147 198 208 151 156 149 176 167 189 172 169 172 172 172 180 197 203
164 164 168 173 166 165 171 176 182 180 175 180 174 155 164 173 174 186 172 158 182 169 161 159 152 162 189 206 170 133 159 185 180 177 200 185 185 181 168 168 182 183 190
168 169 171 176 174 175 176 177 182 179 180 180 177 156 170 176 175 187 191 172 181 169 170 172 169 170 201 199 186 154 160 209 220 200 184 194 188 181 183 185 184 181 186
176 177 180 180 178 181 175 177 184 173 180 181 174 168 181 183 186 191 187 190 179 183 176 184 183 191 203 208 200 172 171 198 206 227 203 192 181 184 196 188 186 187 189
182 181 179 177 178 180 179 185 187 185 189 191 180 177 183 190 191 193 190 191 188 196 174 189 190 195 198 216 218 215 201 164 169 202 240 199 194 197 203 208 197 185 187
184 179 177 175 179 181 187 191 192 192 190 183 182 181 185 192 196 197 191 189 196 204 193 198 175 191 196 214 216 205 206 198 213 184 205 214 218 209 205 211 193 184 185
178 175 175 173 179 183 187 194 199 194 188 188 187 184 188 192 199 201 195 193 198 204 201 195 183 192 210 220 233 225 201 200 214 211 202 206 212 218 202 199 196 187 188